"Pseudo-MPEC" for C33UVL2

Created 2020 Sep 19 22:07:05 UT using Find_Orb

Click here for an explanation of pseudo-MPECs

 
 Astrometry: 
     C33UVL2  C2020 08 28.40984 02 39 17.60 +33 40 20.0    ~8SAb 20.7 GVNEOCPG96
     C33UVL2  C2020 08 28.41503 02 39 23.91 +33 39 39.7    ~8SAb 20.9 GVNEOCPG96
     C33UVL2  C2020 08 28.42023 02 39 30.20 +33 38 58.7    ~8SAb 20.6 GVNEOCPG96
     C33UVL2  C2020 08 28.42542 02 39 36.61 +33 38 17.4    ~8SAb 20.5 GVNEOCPG96
     C33UVL2  C2020 08 28.47761 02 40 40.17 +33 31 18.9    ~8SC7 20.7 GVNEOCPI52
     C33UVL2  C2020 08 28.48057 02 40 43.64 +33 30 55.3    ~8SC7 20.2 GVNEOCPI52
     C33UVL2  C2020 08 28.48206 02 40 45.43 +33 30 42.0    ~8SC7 21.1 GVNEOCPI52
     C33UVL2  C2020 08 29.38066 02 59 56.69 +31 20 41.6    ~8TB7 21.5 GVNEOCPG96
     C33UVL2  C2020 08 29.38159 02 59 57.81 +31 20 32.6    ~8TB7       VNEOCPG96
     C33UVL2  C2020 08 29.38252 02 59 58.93 +31 20 25.2    ~8TB7 21.1 GVNEOCPG96

Station data:
(G96) Mt. Lemmon Survey  (N32.442754 W110.788720)  US/Arizona.  Observers T.
   A. Pruyne, B. M. Africano, E. J. Christensen, G. A. Farneth, D. C. Fuls,
   A. R. Gibbs, A. D. Grauer, H. Gröller, J. A. Johnson, R. A. Kowalski, S.
   M. Larson, G. J. Leonard, D. Rankin, R. L. Seaman, F. C. Shelly. 1.5-m
   reflector + 10K CCD.
(I52) Steward Observatory, Mt. Lemmon Station  (N32.442547 W110.788920)
   US/Arizona.  Observers T. A. Pruyne, B. M. Africano, E. J. Christensen, G.
   A. Farneth, D. C. Fuls, A. R. Gibbs, A. D. Grauer, H. Gröller, J. A.
   Johnson, R. A. Kowalski, S. M. Larson, G. J. Leonard, D. Rankin, R. L.
   Seaman, F. C. Shelly. 1.0-m reflector + CCD.

Orbital elements:  C33UVL2
   Perihelion 2020 Oct 6.845895 +/- 1.05 TT = 20:18:05 (JD 2459129.345895)
Epoch 2020 Aug 29.0 TT = JDT 2459090.5   Earth MOID: 0.0060   AutoNEOCP
M 333.31034117 +/- 0.7              (J2000 ecliptic)
n   0.68706510 +/- 0.00364          Peri.  218.69558 +/- 1.2
a   1.27195219 +/- 0.0045           Node   162.58661 +/- 0.038
e   0.2352232 +/- 0.00305           Incl.   10.67596 +/- 0.33
P   1.43/523.96d           H 25.0   G  0.15   U  9.0  
q 0.97275942 +/- 0.00279    Q 1.57114496 +/- 0.00875
From 10 observations 2020 Aug. 28-29 (23.3 hr); mean residual 0".45
Residuals in arcseconds: 
200828 G96  .40+  .31-    200828 I52  1.2+  .07+    200829 G96  .00   .53-    
200828 G96  .01-  .20+    200828 I52  .40-  .55+    200829 G96  .02-  .29+    
200828 G96  .76-  .19+    200828 I52  .64-  .61-    
200828 G96  .21+  .09-    200829 G96  .02+  .24+    

Ephemerides (geocentric):
Date (UTC) HH   RA              Dec         delta   r     elong  mag " sig PA
---- -- -- --  -------------   -----------  ------ ------ -----  --- ---- ---
2020 09 19 22  06 51 11.416   -13 15 21.16  .10342 .98314  75.3 23.6 2842 129
2020 09 19 23  06 51 22.126   -13 17 25.01  .10357 .98309  75.3 23.6 2843 129
2020 09 20 00  06 51 32.810   -13 19 28.46  .10373 .98304  75.2 23.6 2845 129
2020 09 20 01  06 51 43.468   -13 21 31.49  .10389 .98299  75.2 23.6 2847 129
2020 09 20 02  06 51 54.101   -13 23 34.11  .10405 .98294  75.2 23.6 2849 129
2020 09 20 03  06 52 04.708   -13 25 36.32  .10421 .98289  75.2 23.6 2850 129
2020 09 20 04  06 52 15.290   -13 27 38.12  .10437 .98284  75.2 23.6 2852 129
2020 09 20 05  06 52 25.847   -13 29 39.52  .10453 .98279  75.2 23.6 2854 129
2020 09 20 06  06 52 36.378   -13 31 40.52  .10469 .98274  75.2 23.6 2855 129
2020 09 20 07  06 52 46.885   -13 33 41.12  .10485 .98269  75.2 23.6 2857 129
2020 09 20 08  06 52 57.367   -13 35 41.31  .10501 .98264  75.2 23.6 2859 129
2020 09 20 09  06 53 07.824   -13 37 41.11  .10516 .98259  75.2 23.6 2861 129
2020 09 20 10  06 53 18.257   -13 39 40.51  .10532 .98254  75.2 23.6 2862 129
2020 09 20 11  06 53 28.665   -13 41 39.52  .10548 .98249  75.2 23.6 2864 129
2020 09 20 12  06 53 39.049   -13 43 38.13  .10564 .98244  75.2 23.6 2865 129
2020 09 20 13  06 53 49.408   -13 45 36.35  .10580 .98239  75.2 23.7 2867 129
2020 09 20 14  06 53 59.744   -13 47 34.19  .10596 .98234  75.1 23.7 2869 129
2020 09 20 15  06 54 10.055   -13 49 31.63  .10612 .98230  75.1 23.7 2870 129
2020 09 20 16  06 54 20.342   -13 51 28.69  .10628 .98225  75.1 23.7 2872 129
2020 09 20 17  06 54 30.605   -13 53 25.36  .10644 .98220  75.1 23.7 2874 129
2020 09 20 18  06 54 40.845   -13 55 21.65  .10660 .98215  75.1 23.7 2875 129
2020 09 20 19  06 54 51.061   -13 57 17.56  .10676 .98210  75.1 23.7 2877 129
2020 09 20 20  06 55 01.253   -13 59 13.09  .10692 .98205  75.1 23.7 2878 129
2020 09 20 21  06 55 11.422   -14 01 08.24  .10708 .98201  75.1 23.7 2880 129
2020 09 20 22  06 55 21.568   -14 03 03.02  .10724 .98196  75.1 23.7 2881 129
2020 09 20 23  06 55 31.690   -14 04 57.41  .10740 .98191  75.1 23.7 2883 129
2020 09 21 00  06 55 41.789   -14 06 51.44  .10756 .98186  75.1 23.7 2885 129
2020 09 21 01  06 55 51.866   -14 08 45.09  .10772 .98181  75.1 23.7 2886 129
2020 09 21 02  06 56 01.919   -14 10 38.37  .10788 .98177  75.1 23.7 2888 129
2020 09 21 03  06 56 11.949   -14 12 31.29  .10804 .98172  75.1 23.7 2889 129
2020 09 21 04  06 56 21.957   -14 14 23.83  .10820 .98167  75.1 23.7 2891 129
2020 09 21 05  06 56 31.942   -14 16 16.01  .10836 .98163  75.1 23.7 2892 128
2020 09 21 06  06 56 41.904   -14 18 07.83  .10852 .98158  75.0 23.7 2894 128
2020 09 21 07  06 56 51.844   -14 19 59.28  .10868 .98153  75.0 23.7 2895 128
2020 09 21 08  06 57 01.762   -14 21 50.38  .10884 .98149  75.0 23.7 2897 128
2020 09 21 09  06 57 11.658   -14 23 41.11  .10900 .98144  75.0 23.7 2898 128
2020 09 21 10  06 57 21.531   -14 25 31.48  .10916 .98139  75.0 23.7 2900 128
2020 09 21 11  06 57 31.382   -14 27 21.50  .10932 .98135  75.0 23.7 2901 128
2020 09 21 12  06 57 41.211   -14 29 11.16  .10948 .98130  75.0 23.7 2903 128
2020 09 21 13  06 57 51.019   -14 31 00.47  .10964 .98125  75.0 23.7 2904 128
2020 09 21 14  06 58 00.805   -14 32 49.43  .10980 .98121  75.0 23.7 2906 128
2020 09 21 15  06 58 10.569   -14 34 38.04  .10996 .98116  75.0 23.7 2907 128
2020 09 21 16  06 58 20.311   -14 36 26.29  .11012 .98112  75.0 23.7 2908 128
2020 09 21 17  06 58 30.032   -14 38 14.20  .11028 .98107  75.0 23.7 2910 128
2020 09 21 18  06 58 39.732   -14 40 01.76  .11044 .98102  75.0 23.7 2911 128
2020 09 21 19  06 58 49.410   -14 41 48.98  .11060 .98098  75.0 23.7 2913 128
2020 09 21 20  06 58 59.067   -14 43 35.85  .11076 .98093  75.0 23.7 2914 128
2020 09 21 21  06 59 08.703   -14 45 22.39  .11092 .98089  75.0 23.7 2916 128